DELTA 1 DEB, 7083

Orbit data source: Space-Track

DELTA 1 DEB, 7083 is space debris in SSO originally from a launch on Tue, 06 Nov 1973 UTC launched from the Air Force Western Test Range (AFWTR). Debris objects in space refer to the collection of defunct objects orbiting the Earth. Examples of debris include non-operational satellites, rocket bodies, and fragments generated from explosions, collisions, or faulty payload assembly.

Loading next visibility...
Identifier
7083, 1973-086CB
Orbit
SSO
Country
Flag of USUS
Related business
Manufacturer
Unknown
Mission
Spacecraft
Bus & Motor
Unknown
Mass
Unknown
Launch date (UTC)
1973-11-06 (52 years ago)
Launch vehicle
Unknown
Launch site
Air Force Western Test Range (AFWTR)
Object type
Payload
Rocket body
Debris
Shape & HBR
Unknown shape, 0.1 m
Radar Cross Section
Small (<0.1 m²)

Expand to show TLE details & history
Last TLE update: 3 days ago

TLE from 3 days ago
0 DELTA 1 DEB
1 07083U 73086CB  25304.95847249  .00000078  00000-0  10200-2 0  9994
2 07083 102.4572 312.0008 0066134 245.4993 143.6941 12.32563153335854
Epoch: 2025-10-31T23:00Z
TLE epoch observation values (Epoch: 2025-10-31T23:00:12.023Z)
Latitude
28.91912°
Longitude
-80.52082°
Altitude
1,583.852 km
Speed
7.06 km/s
True Right ascension
20h 20m 05s
True Declination
28° 47' 20"
Sunlit
Object was in daylight at epoch
Visualization orbit readout
Latitude
Unknown
Longitude
Unknown
Altitude
Unknown
Speed
Unknown
Apparent Right ascension
Unknown
Apparent Declination
Unknown
Sunlit
N/A
Visualization observer readout
Local Sidereal Time
12:00:01
Azimuth
Unknown
Elevation
Unknown
Doppler factor
Unknown
Orbital elements
Apogee altitude
1,588.238 km
Perigee altitude
1,483.56 km
Semi-major axis
7,914.036 km
Eccentricity
0.00661
Inclination
102.4572°
RAAN
312.0008°
Arg. of periapsis
245.4993°
True anomaly
144.13984°
Mean anomaly
143.6941°
Eccentric anomaly
143.91727°
Mean motion
3.08281 °/min
Orbital period
116.78 mins
BSTAR
0.00102
Loading maneuver chart data...
Computing Atmospheric mass density...

Documentation

Showing up to 5 results
|